EHI
74 68 59 54 53 55 57 59 61 62 62 61 59 58 57 56 56 50 34 21 22 33 42 50 62 70 68 61 54 43 33 25 19 12 6 3 2 2 2 1 0 0 0
64 57 46 40 40 40 40 43 45 45 44 42 39 37 37 40 43 40 30 20 20 26 33 42 54 62 61 57 51 45 36 27 18 10 6 3 1 1 1 1 0 0 0
43 37 27 21 20 19 18 19 21 21 19 17 16 16 17 21 25 24 19 15 16 22 28 35 43 49 51 51 49 46 39 26 14 8 5 3 1 0 0 0 0 0 0
20 16 11 8 7 7 7 9 11 10 7 6 7 8 9 11 11 11 10 8 10 17 22 27 33 38 41 41 39 37 31 20 10 5 4 3 1 0 0 0 0 0 0
5 4 2 2 3 5 8 12 13 10 7 5 5 4 5 5 5 6 5 4 4 7 11 17 23 29 29 26 22 19 16 10 5 3 3 3 2 1 0 0 0 0 0
0 0 0 1 3 6 10 13 13 10 8 6 4 3 1 1 1 2 1 1 1 2 4 9 14 17 17 14 10 6 4 2 1 1 1 2 2 1 0 0 0 0 0
1 1 1 1 3 5 8 11 11 10 8 6 4 2 1 0 0 0 0 0 0 0 1 3 5 6 7 7 5 1 0 0 0 0 0 1 1 1 0 0 0 0 0
2 2 2 2 2 3 5 8 9 8 7 5 2 1 0 0 0 0 0 0 0 0 0 0 0 1 2 3 2 0 0 0 0 0 0 0 0 0 0 0 0 0 0
1 1 2 1 0 1 2 5 6 6 5 3 1 0 0 0 0 0 0 0 0 0 0 0 0 0 0 1 0 0 0 0 0 0 0 0 0 0 0 0 0 0 0
0 0 0 0 0 0 1 2 3 2 2 1 1 1 0 0 0 0 0 0 0 0 0 0 0 0 0 0 0 0 0 0 0 0 0 0 0 0 0 0 0 0 0
0 0 0 0 0 0 0 1 1 0 1 1 2 2 1 0 0 0 0 0 0 0 0 0 0 0 0 0 0 0 0 0 0 0 0 0 0 0 0 0 0 0 0
0 0 0 0 0 0 0 0 0 0 0 1 2 2 1 0 0 0 0 0 0 0 0 0 0 0 0 0 0 0 0 0 0 0 0 0 0 0 0 0 0 0 0
0 0 0 0 0 0 0 0 0 0 0 1 1 1 0 0 0 0 0 0 0 0 0 0 0 0 0 0 0 0 0 0 0 0 0 0 0 0 0 0 0 0 0
0 0 0 0 0 0 0 0 0 0 0 0 0 0 0 0 0 0 0 0 0 0 0 0 0 0 0 0 0 0 0 0 0 0 0 0 0 0 0 0 0 0 0
0 0 0 0 0 0 0 0 0 0 0 0 0 0 0 0 0 0 0 0 0 0 0 0 0 0 0 0 0 0 0 0 0 0 0 0 0 0 0 0 0 0 0
0 0 0 0 0 0 0 0 0 0 0 0 0 0 0 0 0 0 0 0 0 0 0 0 0 0 0 0 0 0 0 0 0 0 0 0 0 0 0 0 0 0 0
0 0 0 0 0 0 0 0 0 0 0 0 0 0 0 0 0 0 0 0 0 0 0 0 0 0 0 0 0 0 0 0 0 0 0 0 0 0 0 0 0 0 0
0 0 0 0 0 0 0 0 0 0 0 0 0 0 0 0 0 0 0 0 0 0 0 0 0 0 0 0 0 0 0 0 0 0 0 0 0 0 0 0 0 0 0
0 0 0 0 0 0 0 0 0 0 0 0 0 0 0 0 0 0 0 0 0 0 0 0 0 0 0 0 0 0 0 0 0 0 0 0 0 0 0 0 0 0 0
0 0 0 0 0 0 0 0 0 0 0 0 0 0 0 0 0 0 0 0 0 0 0 0 0 0 0 0 0 0 0 0 0 0 0 0 0 0 0 0 0 0 0
0 0 0 0 0 0 0 0 0 0 0 0 0 0 0 0 0 0 0 0 0 0 0 0 0 0 0 0 0 0 0 0 0 0 0 0 0 0 0 0 0 0 0
0 0 0 0 0 0 0 0 0 0 0 0 0 0 0 0 0 0 0 0 0 0 0 0 0 0 0 0 0 0 0 0 0 0 0 0 0 0 0 0 0 0 0
0 0 0 0 0 0 0 0 0 0 0 0 0 0 0 0 0 0 0 0 0 0 0 0 0 0 0 0 0 0 0 0 0 0 0 0 0 0 0 0 0 0 0
0 0 0 0 0 0 0 0 0 0 0 0 0 0 0 0 0 0 0 0 0 0 0 0 0 0 0 0 0 0 0 0 0 0 0 0 0 0 0 0 0 0 0
0 0 0 0 0 0 0 0 0 0 0 0 0 0 0 0 0 0 0 0 0 0 0 0 0 0 0 0 0 0 0 0 0 0 0 0 0 0 0 0 0 0 0
0 0 0 0 0 0 0 0 0 0 0 0 0 0 0 0 0 0 0 0 0 0 0 0 0 0 0 0 0 0 0 0 0 0 0 0 0 0 0 0 0 0 0
Wind_Speed
9 10 11 10 9 7 7 6 5 3 1 1 2 3 4 4 4 5 6 6 6 5 4 4 4 5 5 5 4 3 4 4 3 2 4 5 6 8 7 6 6 7 8
9 9 9 9 8 7 6 5 4 3 2 1 2 2 3 3 4 4 5 6 6 5 5 5 5 5 5 5 6 5 4 4 4 4 2 4 4 4 5 4 3 3 3
9 7 7 7 6 6 5 4 4 3 2 1 0 2 2 3 3 4 4 5 6 6 6 7 6 6 6 6 7 7 7 5 4 4 4 3 5 4 3 2 1 2 2
7 6 6 6 6 6 6 6 5 5 4 3 2 0 1 3 4 4 4 6 6 6 6 6 6 7 6 6 7 7 6 6 5 4 5 5 4 3 3 3 2 3 2
6 7 7 7 6 6 5 5 5 4 3 2 2 1 1 3 3 4 5 6 5 6 6 6 5 5 5 6 7 6 7 6 6 4 3 3 3 3 3 4 3 3 3
6 6 6 5 4 3 3 4 4 3 2 2 1 0 2 3 5 6 6 5 4 4 5 5 5 5 5 6 6 6 6 6 5 4 4 3 3 3 3 3 2 3 3
6 6 6 6 4 3 2 2 3 2 2 1 1 1 1 2 4 5 6 6 5 5 6 5 5 5 5 6 6 6 6 6 5 5 4 4 4 3 3 2 2 2 2
6 7 7 5 4 4 4 3 3 2 2 1 1 1 1 2 2 4 5 6 5 6 6 6 5 6 6 6 6 5 6 5 5 5 5 4 4 4 3 3 2 1 1
6 5 5 5 5 5 5 4 4 3 2 1 1 1 2 2 3 4 4 5 5 6 6 6 6 5 5 5 5 5 6 5 5 5 5 3 3 3 3 2 3 3 2
4 5 5 5 5 5 5 4 5 4 3 2 2 1 1 2 2 3 5 6 6 6 6 5 4 4 4 4 4 4 4 5 4 3 4 3 2 2 2 2 2 2 3
2 3 4 5 6 5 5 4 4 4 4 3 3 2 1 1 2 3 4 5 5 6 6 5 4 3 2 2 2 2 3 4 3 3 4 4 3 3 2 2 2 2 3
2 1 3 4 4 5 4 4 4 5 5 4 4 3 2 1 1 2 4 5 5 5 5 5 4 4 3 2 2 2 3 4 5 5 5 5 5 5 3 3 4 3 3
8 7 5 3 3 4 4 4 5 5 5 5 5 4 3 2 1 1 2 3 4 5 5 5 5 5 5 5 6 7 7 8 7 6 6 6 6 6 4 5 5 5 6
11 11 10 8 6 5 4 4 5 6 6 6 5 5 5 4 3 1 1 2 3 4 4 5 5 5 6 7 8 8 9 9 8 7 6 6 6 6 6 6 7 7 8
14 13 11 9 9 8 7 6 6 6 6 6 6 6 6 5 4 3 1 1 2 2 3 4 4 5 4 5 6 7 9 8 8 7 7 7 9 9 8 7 7 8 7
12 12 11 11 11 11 10 9 8 7 6 7 7 7 6 6 5 4 3 1 1 1 2 3 3 4 4 6 7 7 7 7 8 7 7 7 9 11 13 13 11 9 8
11 11 10 10 10 11 11 11 10 7 6 8 8 8 8 8 7 6 4 3 2 1 1 2 3 4 4 7 9 10 8 7 6 6 6 6 7 7 7 10 12 11 10
12 12 11 11 10 10 11 12 12 8 7 8 8 9 9 9 8 7 6 4 3 3 2 3 4 4 5 8 11 12 9 8 7 6 7 7 6 5 7 7 7 6 6
8 9 9 9 9 10 11 12 12 10 7 7 8 10 11 10 10 9 7 5 4 4 3 4 5 5 4 9 11 10 7 7 6 5 6 7 7 9 10 8 7 6 5
9 9 9 9 9 10 10 10 11 11 10 10 9 9 11 12 12 11 8 6 5 5 5 5 5 6 4 7 11 11 6 6 5 5 5 8 8 10 10 7 6 6 4
12 11 10 9 9 9 8 9 10 11 11 12 11 9 10 12 12 11 8 7 6 6 6 6 5 5 6 7 11 11 6 6 5 4 3 3 9 10 10 8 5 5 4
13 11 9 9 8 8 7 8 10 10 11 11 11 9 9 11 11 11 10 9 9 8 7 6 5 3 4 5 8 10 9 9 6 5 3 3 8 9 9 6 8 10 8
13 11 10 10 9 8 7 8 9 9 10 11 11 10 9 10 10 12 12 10 9 8 7 7 6 5 3 4 8 10 13 13 6 4 7 7 7 7 6 7 9 7 5
13 11 10 10 10 9 8 8 9 8 8 10 10 10 8 9 10 10 11 10 10 10 9 8 7 6 5 4 3 4 6 9 6 4 5 5 6 5 4 5 5 4 4
11 10 9 10 12 10 9 9 8 7 7 8 9 9 8 8 9 10 11 13 12 13 11 10 9 10 8 9 12 9 6 6 6 6 3 2 2 3 3 3 3 3 3
10 10 10 11 12 10 10 9 8 7 6 6 7 7 8 7 7 8 7 10 10 16 16 14 12 10 11 15 16 14 13 13 13 7 4 3 3 3 3 3 2 2 3
Wind_Direction
98 93 92 89 81 73 79 87 89 79 85 256 259 260 260 262 264 261 260 262 262 259 244 234 217 211 212 219 226 232 242 242 221 240 278 275 257 252 254 255 265 274 273
102 96 96 94 96 94 88 86 91 100 116 208 253 255 266 272 267 275 276 270 267 260 251 231 220 221 221 221 218 216 226 233 206 199 235 292 305 274 252 251 264 305 322
119 116 110 111 115 124 137 138 141 133 138 151 290 329 329 321 317 305 294 289 281 269 251 234 221 221 216 219 217 212 217 230 226 201 194 220 247 291 294 265 270 340 352
132 137 135 140 152 170 172 168 171 170 173 157 142 164 292 292 287 290 289 292 285 275 265 249 232 224 219 222 224 218 215 218 228 219 213 212 204 229 289 298 303 324 320
163 163 166 172 183 185 179 181 182 188 193 179 167 171 269 268 283 297 301 301 295 288 279 264 244 231 224 223 221 216 214 211 214 209 203 217 223 213 226 278 304 321 308
188 184 189 189 200 188 169 170 176 204 217 199 191 204 290 304 315 316 313 308 301 295 287 274 255 240 229 224 222 218 213 210 206 201 194 190 192 197 203 236 278 301 300
201 201 202 203 203 183 166 160 166 212 236 219 249 293 308 317 314 312 311 311 305 296 288 278 261 248 233 226 219 212 209 202 198 198 198 196 200 189 191 202 241 278 298
209 207 203 193 183 168 156 155 164 196 218 208 241 328 346 330 314 312 310 307 301 294 290 281 267 255 240 229 217 211 210 202 202 202 196 197 204 192 188 183 179 219 321
205 199 187 176 171 161 166 172 169 178 194 185 168 37 12 356 332 324 321 312 308 305 301 290 276 259 242 229 214 215 214 200 202 201 197 190 196 181 177 178 175 167 157
170 165 169 172 171 172 177 170 165 173 180 165 145 112 53 9 353 347 338 327 320 320 319 315 302 283 258 234 214 210 203 191 190 186 172 162 153 143 150 163 167 162 150
152 180 183 183 180 180 176 169 168 168 168 166 151 134 107 38 20 0 341 332 330 333 336 333 335 329 304 249 197 201 180 169 164 164 148 133 121 114 114 121 116 114 124
5 246 209 200 194 192 188 181 180 179 183 177 167 160 151 110 45 355 337 338 339 339 341 343 352 2 12 31 89 115 118 123 122 117 111 108 106 91 86 91 89 87 95
12 1 342 310 262 231 216 205 200 195 189 176 170 171 171 163 169 311 329 336 340 346 355 10 19 23 32 55 69 79 81 83 84 88 94 96 97 87 79 79 78 77 80
19 13 5 348 324 300 269 244 228 206 192 181 177 184 190 188 194 211 297 322 335 354 6 16 26 38 50 67 75 79 79 81 79 77 79 80 86 89 85 80 81 87 83
17 12 3 354 344 330 311 288 260 227 199 186 188 195 192 185 186 193 223 298 338 357 7 26 30 40 59 73 86 93 95 91 85 78 75 74 77 77 82 90 90 90 88
4 359 356 353 345 337 326 309 284 251 210 196 199 194 183 184 188 194 202 228 286 332 25 34 44 48 64 86 94 99 98 99 96 89 77 71 64 73 76 82 86 93 99
349 347 345 342 340 333 329 320 299 271 227 208 201 190 185 188 192 192 194 207 220 204 104 73 81 71 72 98 107 107 105 101 99 95 84 79 68 72 78 72 68 68 77
340 336 332 330 330 333 334 331 324 297 251 224 207 194 189 191 188 186 194 202 198 184 159 134 116 96 89 106 110 104 95 91 87 89 94 90 70 76 92 81 67 55 48
316 314 313 312 319 327 331 337 334 323 291 256 227 204 192 189 186 189 194 193 184 183 172 154 143 124 103 107 113 108 99 93 81 78 83 92 84 86 90 84 72 50 23
310 308 311 314 318 322 326 336 335 334 323 299 271 229 198 189 190 192 187 180 178 182 167 158 156 143 129 118 121 119 114 106 96 77 69 82 96 91 89 89 83 66 30
295 296 300 303 303 309 320 325 326 326 318 313 299 260 214 197 191 187 178 173 173 170 168 162 160 153 146 131 132 135 132 135 127 114 99 88 99 95 92 91 87 94 98
288 287 286 286 288 294 304 311 311 312 317 317 309 285 233 206 192 181 179 175 170 171 171 164 158 159 156 144 142 146 150 149 138 143 147 136 113 101 94 86 87 89 86
280 277 274 278 280 280 281 290 295 304 317 320 314 305 264 217 189 181 180 175 175 176 177 173 170 167 164 162 156 150 151 150 139 153 161 150 120 95 83 85 87 82 81
274 272 272 273 276 274 272 267 277 290 305 314 313 310 285 230 199 184 181 178 181 182 181 180 177 167 162 165 159 142 141 140 128 130 145 129 104 87 80 75 72 77 96
277 272 269 271 273 272 270 270 271 278 290 306 312 313 298 246 206 192 188 184 189 187 182 185 179 173 178 189 174 160 159 158 152 132 102 92 90 84 71 69 72 77 83
286 282 276 273 274 272 269 270 268 266 272 291 306 309 304 264 216 192 185 193 185 187 185 182 178 185 184 173 176 175 172 165 154 134 134 148 149 145 146 141 123 102 106